Find Starlink 31559

NORAD ID: 59358 Int'l Des: 2024-060 Owner: SPXS Country: US Constellation: starlink operational
LEOCIRCULAR

現在のビュー

3D地球を読み込み中...

About Starlink 31559

Starlink 31559 (NORAD 59358) is a starlink constellation satellite (v2 mini) launched Mar 31, 2024 by SPXS of US. It operates in LEO, CIRCULAR orbit with a mass of 730.00 kg.

Starlink 31559について

説明を読み込み中...

次回通過

Passes for default location (London). Set your location on the main map for personalized predictions.

高度履歴

Loading altitude history...

軌道要素

1 59358U 24060L 26171.34160049 .00000980 00000-0 45129-4 0 9998
2 59358 43.0064 40.0022 0000810 306.0172 54.0604 15.27576279125766
Epoch: Jun 20, 2026 • Age: 22 hours

現在のステータス

高度 495.7 km
速度 7.62 km/s
衛星直下点 -42.49°S, 39.39°W
打ち上げ日 Mar 31, 2024
運用期間 2.2 years
タイプ internet

技術仕様

分類 Payload
質量 730.00 kg
乾燥質量 700.00 kg
総質量 730.00 kg
長さ 0.30 m
直径 4.10 m
スパン 29.00 m
形状 Box + pan
製造者 SPXS
バスタイプ Starlink V2M
フェーズステータス In Orbit
所有者/国 SPXS/US

Most Searched